Regional Weather Roundup
Issued by NWS

Home | Current Version | Previous Version | Text Only | Print | Product List | Glossary Off
Versions: 1 2 3 4 5 6 7 8 9 10 11 12 13 14 15 16 17 18 19 20 21 22 23 24 25 26 27 28 29 30 31 32 33 34 35 36 37 38 39 40 41 42 43 44 45 46 47 48 49 50

000
ASUS43 KBIS 302159
RWRND

NORTH DAKOTA REGIONAL WEATHER ROUNDUP
NATIONAL WEATHER SERVICE BISMARCK ND
500 PM CDT WED JUL 30 2014

NOTE: "FAIR" INDICATES FEW OR NO CLOUDS BELOW 12,000 FEET WITH NO
SIGNIFICANT WEATHER AND/OR OBSTRUCTIONS TO VISIBILITY.


NDZ001>003-009>011-017-302300-
NORTHWEST NORTH DAKOTA

CITY           SKY/WX    TMP DP  RH WIND       PRES   REMARKS
WILLISTON      SUNNY     85  41  21 N9        30.14F
MINOT          SUNNY     79  55  43 NW8       30.12F
$$

NDZ018>021-031>035-040>046-302300-
SOUTHWEST NORTH DAKOTA

CITY           SKY/WX    TMP DP  RH WIND       PRES   REMARKS
BISMARCK       PTSUNNY   83  56  39 E9        30.12F
DICKINSON      SUNNY     83  54  36 N7        30.14F
GARRISON         N/A     79  61  53 CALM      30.13F
HETTINGER ARPT MOSUNNY   81  51  35 NE8       30.17S
$$

NDZ004>008-012>016-024-026-027-054-302300-
NORTHEAST NORTH DAKOTA

CITY           SKY/WX    TMP DP  RH WIND       PRES   REMARKS
GRAND FORKS    MOSUNNY   80  57  45 N7        30.06S
DEVILS LAKE    PTSUNNY   79  55  44 NW8G16    30.09F
$$

NDZ022-023-025-028>030-036>039-047>053-302300-
SOUTHEAST NORTH DAKOTA

CITY           SKY/WX    TMP DP  RH WIND       PRES   REMARKS
FARGO          MOSUNNY   82  53  36 NW6       30.07F
$$



USA.gov is the U.S. government's official web portal to all federal, state and local government web resources and services.